DMC3-FM3

Last updated on Mon Sep 07 2026 00:02:50 GMT+0000 (Coordinated Universal Time)

1 40717U 15032C 26249.60531833 .00000443 00000+0 56817-4 0 9993 2 40717 97.6442 114.9751 0006025 136.3020 223.8674 14.85808949602005
UTC large
Height (km)
Speed (km/s)
/
Latitude / Longitude
Inclination (degrees)
Orbital Period (minutes)
Azimuth
Elevation
Range (km)
Doppler Factor

Next 0 passes for location: London (51.5072 / 0.1276)

No passes found over London.
DMC3-FM3